Location: Byhalia Creek
(34.8270°N, 89.8040°W)
Time: 08:51:47
(UTC+00:00)

USA 281 - Pass Details

Date: 22 April 2026
Orbit: 1079 x 1080 km, 106.0° (Epoch: 5 January)

Event Time Altitude Azimuth Distance (km) Brightness Sun altitude
Exits shadow 07:58:47 65° 29° (NNE) 1,180 3.4 -34.9°
Drops below altitude 10° 08:04:40 10° 344° (NNW) 2,925 5.8 -34.1°
Sets 08:07:11 0° 342° (NNW) 3,884 6.5 -33.8°
